Regional Weather Roundup
Issued by NWS Raleigh/Durham, NC

Home | Current Version | Previous Version | Text Only | Print | Product List | Glossary On
Versions: 1 2 3 4 5 6 7 8 9 10 11 12 13 14 15 16 17 18 19 20 21 22 23 24 25 26 27 28 29 30 31 32 33 34 35 36 37 38 39 40 41 42 43 44 45 46 47 48 49 50
000
ASUS42 KRAH 180910
RWRRAH
NORTH CAROLINA WEATHER ROUNDUP
NATIONAL WEATHER SERVICE RALEIGH NC
500 AM EDT SAT APR 18 2015

NOTE: "FAIR" INDICATES FEW OR NO CLOUDS BELOW 12,000 FEET WITH NO
SIGNIFICANT WEATHER AND/OR OBSTRUCTIONS TO VISIBILITY.

NCZ001-053-055-056-065-067-181000-
WESTERN NORTH CAROLINA

CITY           SKY/WX    TMP DP  RH WIND       PRES   REMARKS
ASHEVILLE      CLOUDY    60  58  92 CALM      30.04F FOG
JEFFERSON      CLEAR     57  49  77 NW3       30.07S
MORGANTON      FOG       61  61 100 CALM      30.04S VSB 1/2
HICKORY        CLOUDY    61  61 100 CALM      30.00R FOG
RUTHERFORDTON  LGT RAIN  61  61 100 CALM      30.00S
MOUNT AIRY     CLOUDY    60  58  92 CALM      30.01F
BOONE            N/A     51  51 100 CALM      30.08R FOG
$$

NCZ021-022-025-041-071-084-088-181000-
CENTRAL NORTH CAROLINA

CITY           SKY/WX    TMP DP  RH WIND       PRES   REMARKS
CHARLOTTE      CLOUDY    62  59  90 N3        30.00S
GREENSBORO     CLOUDY    62  61  96 W6        29.99R
WINSTON-SALEM  CLOUDY    61  60  97 W3        30.01R FOG
RALEIGH-DURHAM CLOUDY    62  60  93 CALM      29.98R FOG
FORT BRAGG     CLOUDY    65  63  94 CALM      29.96R
FAYETTEVILLE   CLOUDY    64  63  96 CALM      29.96S
BURLINGTON     CLOUDY    61  60  97 CALM      29.97S
LAURINBURG     CLOUDY    64  63  96 CALM      29.97S FOG
$$

NCZ011-015-027-028-043-044-047-080-103-181000-
NORTHEASTERN NORTH CAROLINA

CITY           SKY/WX    TMP DP  RH WIND       PRES   REMARKS
ROCKY MT-WILSO CLOUDY    61  61 100 CALM      29.96S FOG
GREENVILLE     CLOUDY    64  64 100 CALM      29.98F
WASHINGTON       N/A     63  62  96 CALM      29.97F
ELIZABETH CITY CLOUDY    63  61  93 SW3       29.97R
MANTEO         CLOUDY    63  63  99 CALM      29.97S
CAPE HATTERAS  CLOUDY    63  61  93 NE3       29.97S
$$

NCZ078-087-090-091-093-098-101-181000-
SOUTHEASTERN NORTH CAROLINA

CITY           SKY/WX    TMP DP  RH WIND       PRES   REMARKS
LUMBERTON      CLOUDY    65  64  97 CALM      29.95F FOG
GOLDSBORO      CLOUDY    65  64  97 CALM      29.94F
KINSTON        CLOUDY    63  63  98 CALM      29.97S
KENANSVILLE    CLOUDY    64  63  97 CALM      29.97S
NEW BERN       CLOUDY    64  62  93 CALM      29.97S
CHERRY POINT   CLOUDY    64  61  90 NE5       29.96F
BEAUFORT       CLOUDY    64  64 100 E5        29.95F
JACKSONVILLE   CLOUDY    64  63  96 CALM      29.95F
WILMINGTON     CLOUDY    66  64  93 CALM      29.95S
$$




USA.gov is the U.S. government's official web portal to all federal, state and local government web resources and services.